Home   Weather   Evansville   Past weeks

Flag for USA Past Weather in Evansville, Indiana, USA — Yesterday and Last 2 Weeks

Now
53 °F

Clear.


Feels Like: 53 °F
Forecast: 51 / 65 °F
Wind: No wind

Location: Evansville Regional Airport

Current Time: Feb 21, 2017 at 3:52:21 am

Latest Report: Feb 21, 2017 at 2:54 am


Visibility: 10 mi

Pressure: 29.96 "Hg

Humidity: 77%

Dew Point: 46 °F

Location of EvansvilleLocation

Past Weather in Evansville — Graph

°F

Evansville Temperature Yesterday

Maximum temperature yesterday: 74 °F (at 2:54 pm)
Minimum temperature yesterday: 42 °F (at 6:08 am)
Average temperature yesterday: 56 °F

High & Low Weather Summary for the Past Weeks

 TemperatureHumidityPressure
High74 °F (Feb 20, 2:54 pm)97% (Feb 19, 10:54 pm)30.45 "Hg (Feb 19, 10:54 pm)
Low20 °F (Feb 9, 6:54 am)26% (Feb 16, 2:54 pm)29.52 "Hg (Feb 7, 1:54 pm)
Average48 °F67%30.00 "Hg
* Reported Feb 6 1:54 am — Feb 21 1:54 am, Evansville, Weather by CustomWeather, © 2017

Note: Actual official high and low records may vary slightly from our data, if they occured in-between our weather recording intervals... More about our weather records

Advertising

Evansville Weather History for the Previous 24 Hours

Scroll right to see more
 ConditionsComfort  
Time TempWeatherWind HumidityBarometerVisibility
1:54 am
Tue, Feb 21
56 °FClear.No wind70%29.97 "Hg10 mi
12:54 am55 °FClear.No wind72%29.96 "Hg10 mi
11:54 pm
Mon, Feb 20
57 °FClear.3 mph67%29.97 "Hg10 mi
10:54 pm54 °FClear.3 mph77%29.98 "Hg10 mi
9:54 pm59 °FClear.No wind64%30.00 "Hg10 mi
8:54 pm58 °FClear.3 mph67%30.01 "Hg10 mi
7:54 pm61 °FClear.5 mph60%30.03 "Hg10 mi
6:54 pm63 °FClear.5 mph56%30.03 "Hg10 mi
5:54 pm65 °FClear.3 mph52%30.03 "Hg10 mi
4:54 pm68 °FClear.5 mph51%30.03 "Hg10 mi
3:54 pm70 °FSunny.6 mph49%30.03 "Hg10 mi
2:54 pm74 °FSunny.9 mph45%30.04 "Hg10 mi
1:54 pm72 °FSunny.9 mph52%30.06 "Hg10 mi
12:54 pm70 °FSunny.7 mph55%30.09 "Hg10 mi
11:54 am67 °FSunny.8 mph59%30.13 "Hg10 mi
10:54 am64 °FSunny.6 mph65%30.15 "Hg10 mi
9:54 am57 °FSunny.6 mph78%30.17 "Hg7 mi
8:54 am53 °FFog.5 mph86%30.17 "Hg5 mi
8:11 am50 °FFog.3 mph89%30.17 "Hg3 mi
7:54 am48 °FFog.5 mph93%30.16 "Hg2 mi
6:54 am44 °FFog.5 mph93%30.17 "Hg2 mi
6:38 am44 °FFog.6 mph89%30.16 "Hg1 mi
6:08 am42 °FFog.7 mph89%30.16 "Hg1 mi
5:26 am43 °FFog.3 mph93%30.16 "Hg1 mi
5:08 am43 °FFog.3 mph93%30.17 "Hg0 mi
3:54 am43 °FFog.3 mph93%30.15 "Hg0 mi
Weather by CustomWeather, © 2017

See weather overviewHow to use our weather pages